Wind_Speed
45 45 45 46 47 48 49 50 50 50 49 49 49 49 50 50 50 49 49 51 51 51 52 52 52 53 53 52 51 51 51 51 51 50 49 48 47 47 47 47 46 45 45
44 45 44 44 45 46 47 48 48 49 49 48 48 48 48 49 50 49 49 50 51 51 51 51 51 51 53 52 52 52 52 51 51 50 50 49 48 48 48 47 46 45 45
44 44 44 44 44 44 45 45 46 47 47 47 47 47 48 48 49 49 49 50 50 50 50 51 51 51 52 52 52 52 52 51 51 51 51 50 49 48 48 48 47 46 46
44 44 44 44 43 43 43 43 43 43 44 45 46 47 47 48 48 49 49 49 50 50 51 51 51 51 51 52 52 51 52 52 53 52 51 50 49 49 48 48 48 47 47
43 43 43 43 43 42 42 42 42 42 42 43 44 45 46 47 47 47 48 48 49 50 51 51 51 51 51 51 51 51 51 51 52 52 51 51 50 49 49 48 48 48 47
43 42 41 41 41 41 41 41 41 41 41 42 43 44 44 45 47 47 47 47 47 48 49 49 49 50 50 50 50 50 50 50 51 52 51 51 50 50 49 49 48 48 47
43 42 41 40 40 40 40 40 40 39 39 40 41 42 43 44 46 48 48 48 48 48 48 49 49 50 50 50 51 50 50 50 50 50 50 50 50 49 49 48 48 47 47
42 41 41 40 39 38 38 37 38 37 38 38 39 40 41 42 44 45 47 48 48 48 48 49 49 50 50 50 50 50 50 50 50 50 49 49 49 49 48 47 47 47 47
41 39 39 38 37 37 36 35 36 36 37 37 38 39 40 40 42 44 45 45 46 46 47 48 48 49 50 50 49 49 50 50 50 50 50 49 50 50 48 47 47 47 47
39 38 38 37 36 35 35 35 35 34 35 36 36 37 38 39 41 42 43 44 44 44 45 45 46 47 48 48 48 48 48 49 48 48 48 48 49 49 48 47 46 47 47
36 35 35 34 34 33 33 33 33 33 33 34 34 35 36 37 38 40 41 42 42 43 43 43 44 45 46 46 46 46 46 47 47 47 47 47 47 48 48 48 47 47 47
34 33 33 32 32 31 31 32 32 32 32 32 33 34 35 36 36 37 38 40 41 41 42 42 43 44 44 44 45 45 46 46 47 47 47 47 48 48 48 48 48 47 47
33 32 32 31 31 30 30 30 31 31 31 31 31 32 33 33 34 34 36 37 39 40 40 41 42 42 42 42 43 44 45 46 46 46 47 47 47 48 48 48 48 49 48
33 32 31 31 30 30 30 30 30 30 30 30 30 30 31 31 32 32 33 35 37 38 39 41 42 41 40 41 42 43 44 44 45 46 46 46 46 47 48 48 48 49 48
31 31 30 30 30 30 30 30 29 29 29 29 29 29 30 30 31 31 32 34 35 36 37 38 40 41 40 40 41 41 42 42 43 44 45 45 46 47 47 47 47 48 47
30 29 29 29 29 28 28 28 29 28 28 28 29 29 29 30 31 31 32 33 34 35 36 37 39 40 40 40 40 40 40 41 42 42 43 44 44 45 45 46 46 46 46
28 28 28 28 28 28 27 27 28 28 28 28 28 29 29 30 31 31 32 32 33 34 36 37 38 39 39 39 39 39 39 40 41 41 42 42 43 43 44 44 44 44 44
28 27 27 27 27 27 26 26 26 26 26 26 27 27 28 29 29 30 30 31 31 32 33 34 36 37 37 37 38 38 39 39 40 41 41 42 42 42 43 43 43 42 42
28 27 27 26 26 26 26 25 25 25 25 26 26 26 27 28 28 29 29 30 30 30 31 32 33 34 35 36 36 37 37 38 38 39 39 40 41 41 41 41 41 41 41
28 27 27 26 26 25 25 25 25 25 25 25 25 26 26 27 28 28 28 28 29 29 30 30 31 32 33 34 34 35 36 37 37 37 37 38 38 38 38 38 39 39 38
27 27 27 26 26 25 25 25 25 25 25 24 24 25 25 26 27 28 28 28 29 29 30 30 31 31 32 33 33 33 33 33 34 34 35 35 35 35 35 35 35 36 36
26 26 26 26 26 25 25 25 25 25 25 25 25 24 24 25 26 26 27 28 28 29 30 30 31 31 32 32 32 32 31 31 31 32 33 33 33 33 33 33 33 34 35
25 25 24 24 24 24 24 24 24 25 25 25 25 25 25 25 25 26 26 27 28 28 29 29 30 30 30 31 31 31 30 30 30 30 31 31 31 31 32 32 32 32 33
24 24 24 24 23 23 23 23 24 24 24 24 24 24 25 24 25 25 25 26 27 28 28 28 28 28 29 29 30 30 29 29 29 30 30 30 31 31 31 31 31 31 32
23 23 23 23 22 22 22 22 22 23 23 23 23 23 24 24 24 25 26 26 26 26 26 26 26 27 28 28 28 28 29 29 29 30 30 31 31 31 30 30 31 31 32
23 22 22 21 20 20 20 20 20 20 20 21 22 22 23 23 23 24 25 25 25 25 25 25 25 25 26 26 27 27 28 29 29 29 29 29 30 30 30 30 30 30 30
Wind_Direction
279 278 276 274 272 270 268 267 265 263 262 261 259 256 254 253 252 252 251 250 250 250 249 249 248 248 247 247 247 247 247 247 247 248 249 250 250 252 254 255 256 258 258
280 279 277 275 274 272 270 268 265 264 262 260 258 255 253 252 251 250 250 249 249 249 248 248 247 247 246 246 246 247 247 247 247 247 248 250 250 252 254 255 256 258 258
281 279 278 277 275 273 271 269 267 264 262 260 258 255 253 251 250 250 249 249 249 248 247 247 247 247 246 246 246 246 246 246 246 247 249 250 251 252 253 254 255 256 258
282 280 279 277 275 273 272 269 267 265 262 260 258 255 253 251 249 249 248 247 247 246 246 246 247 246 246 245 245 245 246 246 246 248 249 250 251 252 253 254 255 256 257
283 281 280 277 275 273 271 270 267 265 264 261 259 257 254 251 249 248 247 247 246 246 246 246 246 246 246 246 245 245 246 246 247 248 249 250 251 252 252 253 254 256 257
283 282 280 277 275 273 272 271 268 266 264 262 259 256 254 251 248 247 247 246 246 246 247 247 246 246 246 246 245 245 246 247 248 248 249 250 251 251 251 252 253 255 256
284 282 280 278 276 274 273 270 268 266 265 262 259 256 254 251 248 247 247 247 246 246 246 246 247 247 246 246 245 245 246 247 248 249 249 250 250 250 251 252 253 255 256
285 282 280 278 276 274 273 270 268 266 264 263 259 257 254 252 249 248 248 248 247 246 246 246 246 247 247 247 245 246 247 249 249 249 249 250 250 250 251 252 253 255 256
285 282 280 277 276 275 271 269 267 266 265 264 261 258 255 252 249 249 248 247 246 246 245 245 246 246 246 245 245 246 248 249 249 249 249 250 249 250 251 252 253 254 255
286 283 280 277 277 274 271 269 268 267 266 264 263 259 255 252 250 248 248 247 246 246 245 245 245 245 244 244 245 247 247 248 248 248 249 250 249 250 251 252 253 254 255
288 285 282 279 277 274 272 271 269 268 267 265 262 259 255 253 251 249 248 248 247 246 245 245 245 244 243 244 246 247 247 247 247 248 248 249 249 250 251 252 253 254 255
289 286 283 280 278 275 273 272 270 269 268 266 262 258 255 253 252 250 249 248 247 247 247 247 246 244 244 245 246 247 247 247 247 248 248 249 249 250 251 252 253 254 256
290 287 284 281 278 276 275 274 272 270 267 265 263 260 256 254 252 250 249 248 247 247 247 247 246 245 244 246 247 247 246 246 247 248 248 249 250 251 251 252 253 254 256
289 287 284 282 279 277 275 275 272 270 267 265 263 260 256 254 251 251 250 248 247 246 246 246 246 245 245 246 247 247 246 246 247 248 248 249 251 251 252 254 254 256 256
288 287 284 282 280 277 276 274 272 270 267 265 262 259 257 254 253 252 250 250 248 247 246 246 244 244 245 246 247 245 245 246 247 248 248 249 251 252 253 254 256 257 257
289 287 285 283 280 277 276 274 272 270 268 265 262 260 257 255 252 252 252 251 249 247 247 246 245 245 245 246 247 246 246 247 247 248 248 250 251 252 253 254 255 257 258
290 288 286 284 281 278 275 273 271 270 269 266 262 259 256 254 253 253 253 252 251 249 248 246 246 246 246 246 247 247 247 247 248 248 248 249 251 252 254 255 255 256 257
292 291 289 286 283 280 277 274 270 267 266 266 263 260 258 256 254 254 253 252 251 250 248 248 247 246 245 245 246 247 247 248 248 247 248 249 251 251 253 254 255 255 256
293 292 290 287 284 280 278 275 271 269 267 266 264 262 260 257 254 253 253 252 252 251 250 249 247 246 246 246 247 247 247 247 248 248 249 250 250 251 252 253 253 254 256
292 291 289 286 283 280 277 273 270 269 267 265 262 261 260 258 255 254 253 253 253 252 251 249 247 246 246 246 247 248 248 248 249 248 248 248 249 250 251 251 253 254 256
293 290 289 286 283 279 276 272 271 269 266 264 262 261 260 259 256 255 254 254 253 252 250 249 248 247 246 246 247 248 248 247 247 247 247 247 249 250 250 252 253 254 256
294 291 289 286 282 279 275 271 269 268 266 263 261 260 259 258 256 256 255 255 253 251 249 248 248 248 246 245 246 247 247 246 246 246 247 247 248 249 250 252 254 256 257
296 294 291 288 284 280 275 272 269 266 265 263 261 259 259 259 258 257 255 255 254 252 250 249 248 247 245 245 245 245 246 246 245 246 246 247 247 248 250 253 255 257 258
299 295 291 288 285 282 278 273 270 267 266 263 261 259 259 258 258 257 255 254 253 252 251 249 247 246 245 244 243 244 244 245 245 245 244 245 247 249 252 254 256 257 258
301 298 294 289 285 282 279 276 273 269 266 263 261 260 259 259 259 258 256 255 253 251 249 247 245 243 243 243 244 243 243 243 244 244 244 245 247 250 252 254 255 257 260
302 299 296 293 288 284 280 277 276 272 269 265 262 260 260 261 260 260 257 255 253 250 247 243 241 241 242 243 244 244 242 242 243 244 245 246 248 250 252 254 256 259 261
Height
5582 5580 5578 5577 5576 5576 5576 5577 5578 5579 5580 5582 5584 5586 5589 5592 5595 5598 5602 5605 5609 5613 5617 5621 5626 5630 5634 5639 5644 5649 5654 5659 5665 5670 5674 5678 5681 5685 5688 5691 5694 5696 5698
5569 5567 5565 5564 5563 5562 5562 5562 5562 5563 5564 5566 5568 5571 5574 5577 5580 5584 5587 5591 5594 5599 5603 5607 5611 5615 5620 5625 5630 5635 5640 5645 5651 5656 5660 5664 5668 5672 5675 5678 5681 5684 5686
5556 5554 5553 5551 5549 5548 5548 5547 5547 5548 5549 5551 5553 5556 5559 5562 5565 5569 5572 5576 5580 5585 5589 5593 5597 5601 5606 5610 5616 5621 5626 5631 5636 5642 5647 5651 5655 5659 5662 5665 5668 5671 5674
5544 5541 5539 5537 5536 5535 5534 5534 5533 5533 5535 5536 5538 5541 5544 5547 5551 5554 5558 5562 5566 5570 5575 5579 5583 5587 5592 5596 5601 5607 5612 5617 5622 5627 5633 5637 5641 5645 5649 5652 5655 5658 5661
5531 5528 5526 5524 5523 5522 5521 5521 5520 5521 5521 5523 5525 5527 5530 5533 5536 5540 5544 5548 5552 5556 5561 5565 5569 5574 5578 5582 5587 5593 5598 5603 5608 5613 5618 5623 5627 5631 5635 5639 5642 5645 5648
5518 5516 5513 5511 5510 5509 5508 5508 5508 5508 5508 5509 5511 5513 5516 5519 5522 5526 5530 5534 5538 5542 5547 5551 5556 5560 5564 5569 5574 5579 5585 5589 5594 5599 5604 5609 5614 5617 5621 5625 5628 5632 5635
5505 5503 5501 5499 5497 5496 5495 5495 5495 5496 5496 5497 5498 5500 5502 5505 5509 5512 5516 5520 5525 5529 5533 5538 5542 5547 5551 5556 5561 5566 5571 5576 5581 5586 5591 5596 5600 5604 5608 5612 5615 5617 5621
5492 5490 5488 5486 5485 5484 5483 5483 5483 5483 5484 5485 5486 5487 5489 5492 5495 5498 5502 5506 5511 5516 5520 5525 5530 5534 5538 5543 5548 5553 5558 5563 5568 5573 5578 5582 5586 5589 5594 5598 5601 5604 5607
5480 5477 5475 5474 5473 5472 5472 5471 5471 5472 5472 5473 5473 5475 5477 5480 5482 5486 5489 5493 5498 5503 5508 5512 5516 5521 5525 5530 5535 5540 5545 5550 5554 5559 5564 5568 5572 5576 5579 5583 5586 5590 5594
5467 5465 5463 5462 5461 5461 5460 5460 5460 5460 5461 5461 5462 5463 5465 5467 5470 5473 5477 5481 5486 5491 5495 5500 5504 5508 5512 5517 5522 5527 5532 5537 5541 5546 5550 5554 5558 5562 5566 5569 5573 5576 5580
5456 5453 5452 5451 5450 5450 5449 5449 5449 5450 5450 5450 5451 5452 5454 5456 5459 5462 5465 5469 5474 5478 5483 5487 5491 5495 5500 5504 5509 5514 5519 5524 5528 5532 5537 5541 5545 5549 5552 5555 5559 5562 5565
5446 5444 5442 5441 5440 5439 5439 5439 5439 5439 5440 5440 5440 5442 5443 5445 5448 5451 5454 5458 5462 5466 5471 5475 5479 5483 5488 5492 5497 5502 5506 5510 5515 5520 5524 5528 5532 5536 5539 5542 5545 5548 5551
5436 5434 5432 5431 5430 5429 5429 5429 5429 5429 5429 5430 5431 5432 5434 5436 5438 5440 5443 5447 5450 5455 5459 5463 5467 5472 5476 5480 5485 5489 5493 5498 5502 5507 5511 5515 5519 5522 5525 5528 5531 5534 5537
5427 5425 5423 5422 5421 5420 5419 5419 5419 5419 5420 5420 5421 5423 5424 5426 5428 5431 5433 5436 5440 5443 5448 5452 5456 5460 5464 5469 5473 5477 5481 5486 5490 5494 5498 5502 5505 5508 5512 5515 5518 5520 5523
5418 5416 5414 5413 5411 5411 5410 5409 5409 5410 5410 5411 5412 5413 5415 5418 5419 5421 5423 5426 5429 5433 5437 5441 5445 5449 5453 5458 5461 5465 5469 5474 5477 5481 5485 5489 5492 5495 5498 5501 5504 5506 5509
5409 5407 5405 5404 5402 5402 5401 5401 5400 5401 5401 5402 5403 5404 5406 5408 5410 5412 5414 5416 5419 5422 5426 5430 5434 5438 5442 5446 5450 5454 5458 5461 5465 5469 5472 5476 5479 5482 5485 5487 5490 5492 5495
5400 5398 5396 5395 5394 5393 5392 5392 5392 5392 5392 5393 5394 5395 5397 5399 5400 5402 5405 5407 5409 5412 5416 5419 5423 5427 5431 5435 5439 5442 5446 5450 5453 5456 5460 5463 5466 5469 5472 5475 5477 5479 5481
5391 5389 5388 5386 5385 5384 5383 5383 5383 5384 5384 5385 5385 5387 5388 5389 5391 5393 5395 5398 5400 5403 5406 5409 5413 5416 5420 5423 5427 5431 5434 5438 5441 5444 5447 5450 5453 5456 5459 5462 5464 5466 5469
5383 5381 5379 5378 5377 5376 5375 5375 5375 5375 5376 5377 5377 5378 5379 5381 5382 5384 5386 5388 5391 5394 5396 5399 5402 5406 5409 5413 5416 5420 5423 5426 5429 5432 5435 5438 5441 5444 5447 5449 5452 5454 5456
5375 5373 5371 5370 5368 5367 5367 5366 5367 5367 5368 5368 5369 5370 5371 5372 5374 5376 5378 5380 5382 5385 5387 5390 5393 5396 5399 5402 5406 5409 5412 5415 5418 5421 5424 5427 5430 5432 5435 5437 5440 5442 5445
5366 5364 5363 5361 5360 5359 5359 5358 5359 5359 5359 5360 5361 5362 5363 5364 5366 5367 5369 5371 5373 5376 5378 5381 5383 5386 5390 5393 5396 5399 5402 5405 5407 5411 5413 5416 5419 5421 5424 5426 5429 5431 5433
5358 5356 5354 5353 5351 5351 5350 5350 5350 5351 5351 5352 5353 5354 5355 5356 5357 5359 5361 5362 5364 5366 5368 5371 5374 5377 5380 5383 5386 5389 5392 5395 5398 5401 5403 5406 5409 5411 5414 5416 5418 5420 5422
5350 5348 5346 5344 5343 5342 5342 5341 5341 5342 5343 5343 5344 5346 5347 5348 5349 5351 5352 5354 5356 5357 5359 5362 5365 5367 5370 5373 5376 5379 5382 5385 5388 5391 5394 5396 5399 5402 5404 5406 5408 5410 5412
5343 5340 5338 5337 5335 5334 5333 5333 5333 5333 5334 5335 5336 5337 5338 5340 5341 5343 5344 5346 5347 5349 5351 5353 5355 5358 5361 5364 5367 5370 5373 5376 5379 5381 5384 5387 5390 5392 5394 5397 5398 5400 5402
5335 5333 5331 5329 5327 5326 5325 5325 5325 5325 5326 5326 5328 5329 5330 5332 5333 5334 5336 5337 5339 5340 5342 5344 5347 5350 5352 5355 5358 5361 5363 5366 5369 5372 5375 5378 5381 5383 5385 5387 5389 5390 5391
5328 5326 5323 5321 5320 5319 5318 5318 5318 5318 5318 5319 5320 5321 5322 5324 5325 5326 5327 5329 5330 5332 5334 5337 5339 5342 5345 5347 5349 5352 5354 5357 5360 5363 5366 5368 5371 5373 5375 5377 5379 5380 5381